Location: Melita
(38.4566°N, 122.6369°W)
Time: 10:11:19
(UTC+00:00)

STARLINK-1042 - Pass Details

Date: 24 January 2020
Orbit: 548 x 551 km, 53.0° (Epoch: 17 February)

Event Time Altitude Azimuth Distance (km) Brightness Sun altitude
Exits shadow 12:57:04 - 175° (S) 2,654 7.2 -28.3°
Reaches altitude 10° 13:00:49 10° 138° (SE) 1,810 6.8 -27.6°
Drops below altitude 10° 13:02:55 10° 108° (ESE) 1,812 7.2 -27.2°
Enters shadow 14:09:16 -56° 227° (SW) 11,155 10.2 -14.3°
Maximum altitude 14:40:46 90° 241° (WSW) 551 3.6 -8.4°
